Weather History for Ely, MN

Change the Weather History Date:

Sunday, February 9, 2014

  Actual Average Record
Temperature  
Mean Temperature -8 °F -  
Max Temperature 1 °F 22 °F 42 °F (1998)
Min Temperature -16 °F 1 °F -20 °F (2007)
Degree Days  
Heating Degree Days 72    
Moisture  
Dew Point -16 °F    
Average Humidity 69    
Maximum Humidity 84    
Minimum Humidity 47    
Precipitation  
Precipitation 0.00 in - - ()
Sea Level Pressure  
Sea Level Pressure 30.13 in    
Wind  
Wind Speed 6 mph (WNW)    
Max Wind Speed 13 mph    
Max Gust Speed 20 mph    
Visibility 10 miles    
Events      
Averages and records for this station are not official NWS values.
T = Trace of Precipitation, MM = Missing Value Source: NWS Daily Summary

Daily Weather History Graph

Daily Weather History Graph

Search for Another Location

Airport:

Trip Planner

Search our weather history database for the weather conditions in past years. The results will help you decide how hot, cold, wet, or windy it might be!

Date:

Astronomy

Feb. 09, 2014 Rise Set
Actual Time 7:22 AM CST 5:20 PM CST
Civil Twilight 6:50 AM CST 5:53 PM CST
Nautical Twilight 6:14 AM CST 6:29 PM CST
Astronomical Twilight 5:38 AM CST 7:05 PM CST
Moon 12:53 PM CST (2/9) 3:35 AM CST (2/9)
Length of Visible Light 11h 02m
Length of Day
9h 57m
Waxing Gibbous, 77% of the Moon is Illuminated
Feb 9
Waxing Gibbous
Feb 14
Full
Feb 22
Last Quarter
Mar 1
New
Mar 8
First Quarter

Hourly Weather History & Observations

Time (CST) Temp. Windchill Dew Point Humidity Pressure Visibility Wind Dir Wind Speed Gust Speed Precip Events Conditions
12:13 AM -4.0 °F -14.6 °F -11.2 °F 71% 30.08 in 10.0 mi NW 4.6 mph - N/A   Scattered Clouds
12:32 AM -5.8 °F -16.7 °F -11.2 °F 77% 30.08 in 10.0 mi NW 4.6 mph - N/A   Clear
12:53 AM -5.8 °F -16.7 °F -11.2 °F 77% 30.08 in 10.0 mi WNW 4.6 mph - N/A   Clear
1:13 AM -5.8 °F -18.4 °F -11.2 °F 77% 30.08 in 10.0 mi WNW 5.8 mph - N/A   Clear
1:32 AM -7.6 °F -20.6 °F -11.2 °F 84% 30.08 in 10.0 mi WNW 5.8 mph - N/A   Clear
1:53 AM -7.6 °F -18.8 °F -13.0 °F 77% 30.08 in 10.0 mi NW 4.6 mph - N/A   Clear
2:13 AM -7.6 °F -18.8 °F -13.0 °F 77% 30.09 in 10.0 mi WNW 4.6 mph - N/A   Clear
2:33 AM -7.6 °F -18.8 °F -13.0 °F 77% 30.09 in 10.0 mi NW 4.6 mph - N/A   Clear
2:53 AM -7.6 °F -18.8 °F -13.0 °F 77% 30.09 in 10.0 mi NW 4.6 mph - N/A   Scattered Clouds
3:12 AM -7.6 °F -18.8 °F -13.0 °F 77% 30.09 in 10.0 mi WNW 4.6 mph - N/A   Mostly Cloudy
3:33 AM -7.6 °F -20.6 °F -11.2 °F 84% 30.09 in 10.0 mi WNW 5.8 mph - N/A   Scattered Clouds
3:53 AM -7.6 °F -20.6 °F -13.0 °F 77% 30.09 in 10.0 mi WNW 5.8 mph - N/A   Clear
4:12 AM -7.6 °F -20.6 °F -13.0 °F 77% 30.09 in 10.0 mi NW 5.8 mph - N/A   Scattered Clouds
4:33 AM -9.4 °F -22.7 °F -14.8 °F 77% 30.09 in 10.0 mi WNW 5.8 mph - N/A   Scattered Clouds
4:52 AM -9.4 °F -22.7 °F -14.8 °F 77% 30.09 in 10.0 mi NW 5.8 mph - N/A   Clear
5:13 AM -11.2 °F -23.0 °F -14.8 °F 84% 30.09 in 10.0 mi WNW 4.6 mph - N/A   Clear
5:33 AM -11.2 °F -24.8 °F -14.8 °F 84% 30.09 in 10.0 mi WNW 5.8 mph - N/A   Clear
5:52 AM -11.2 °F -24.8 °F -16.6 °F 77% 30.09 in 10.0 mi WNW 5.8 mph - N/A   Clear
6:13 AM -11.2 °F -24.8 °F -16.6 °F 77% 30.10 in 10.0 mi WNW 5.8 mph - N/A   Clear
6:33 AM -11.2 °F -26.4 °F -16.6 °F 77% 30.10 in 10.0 mi WNW 6.9 mph - N/A   Clear
6:52 AM -13.0 °F -27.0 °F -16.6 °F 84% 30.10 in 10.0 mi WNW 5.8 mph - N/A   Clear
7:13 AM -14.8 °F -27.2 °F -18.4 °F 84% 30.12 in 10.0 mi WNW 4.6 mph - N/A   Clear
7:33 AM -14.8 °F -29.1 °F -18.4 °F 84% 30.12 in 10.0 mi NW 5.8 mph - N/A   Clear
7:52 AM -14.8 °F -27.2 °F -18.4 °F 84% 30.12 in 10.0 mi WNW 4.6 mph - N/A   Clear
8:13 AM -14.8 °F -24.8 °F -18.4 °F 84% 30.12 in 10.0 mi WNW 3.5 mph - N/A   Clear
8:33 AM -11.2 °F -24.8 °F -16.6 °F 77% 30.12 in 10.0 mi West 5.8 mph - N/A   Clear
8:52 AM -11.2 °F -26.4 °F -16.6 °F 77% 30.13 in 10.0 mi NW 6.9 mph - N/A   Clear
9:13 AM -11.2 °F -27.8 °F -16.6 °F 77% 30.13 in 10.0 mi NW 8.1 mph - N/A   Clear
9:33 AM -9.4 °F -24.3 °F -16.6 °F 71% 30.13 in 10.0 mi WNW 6.9 mph - N/A   Clear
9:52 AM -7.6 °F -20.6 °F -16.6 °F 65% 30.14 in 10.0 mi NNW 5.8 mph - N/A   Clear
10:13 AM -7.6 °F -22.1 °F -16.6 °F 65% 30.14 in 10.0 mi WNW 6.9 mph - N/A   Clear
10:33 AM -5.8 °F -21.2 °F -16.6 °F 60% 30.13 in 10.0 mi WNW 8.1 mph - N/A   Clear
10:52 AM -5.8 °F -18.4 °F -16.6 °F 60% 30.13 in 10.0 mi NW 5.8 mph 18.4 mph N/A   Clear
11:13 AM -5.8 °F -24.4 °F -16.6 °F 60% 30.14 in 10.0 mi WNW 11.5 mph 17.3 mph N/A   Clear
11:33 AM -2.2 °F -18.9 °F -14.8 °F 55% 30.14 in 10.0 mi NW 10.4 mph 16.1 mph N/A   Clear
11:52 AM -2.2 °F -18.9 °F -14.8 °F 55% 30.14 in 10.0 mi NW 10.4 mph 16.1 mph N/A   Clear
12:13 PM -2.2 °F -18.0 °F -14.8 °F 55% 30.13 in 10.0 mi WNW 9.2 mph 17.3 mph N/A   Clear
12:32 PM -0.4 °F -16.7 °F -14.8 °F 51% 30.12 in 10.0 mi NNW 10.4 mph - N/A   Clear
12:53 PM -0.4 °F -17.6 °F -14.8 °F 51% 30.12 in 10.0 mi NW 11.5 mph - N/A   Clear
1:12 PM -0.4 °F -14.7 °F -14.8 °F 51% 30.11 in 10.0 mi NNW 8.1 mph 18.4 mph N/A   Clear
1:33 PM -0.4 °F -15.7 °F -14.8 °F 51% 30.11 in 10.0 mi NW 9.2 mph 17.3 mph N/A   Clear
1:53 PM 1.4 °F -16.1 °F -14.8 °F 47% 30.10 in 10.0 mi NW 12.7 mph 17.3 mph N/A   Clear
2:13 PM 1.4 °F -16.1 °F -14.8 °F 47% 30.10 in 10.0 mi West 12.7 mph 18.4 mph N/A   Clear
2:33 PM 1.4 °F -12.5 °F -14.8 °F 47% 30.10 in 10.0 mi WNW 8.1 mph 17.3 mph N/A   Clear
2:51 PM 1.4 °F -12.5 °F -14.8 °F 47% 30.11 in 10.0 mi WNW 8.1 mph 19.6 mph N/A   Clear
3:13 PM 1.4 °F -15.3 °F -14.8 °F 47% 30.11 in 10.0 mi West 11.5 mph 18.4 mph N/A   Clear
3:33 PM 1.4 °F -15.3 °F -13.0 °F 51% 30.11 in 10.0 mi WNW 11.5 mph 19.6 mph N/A   Clear
3:53 PM -0.4 °F -17.6 °F -13.0 °F 55% 30.12 in 10.0 mi WNW 11.5 mph 16.1 mph N/A   Scattered Clouds
4:13 PM -0.4 °F -17.6 °F -13.0 °F 55% 30.12 in 10.0 mi West 11.5 mph 16.1 mph N/A   Scattered Clouds
4:33 PM -0.4 °F -14.7 °F -13.0 °F 55% 30.13 in 10.0 mi WNW 8.1 mph - N/A   Clear
4:52 PM -2.2 °F -20.7 °F -13.0 °F 60% 30.14 in 10.0 mi NW 12.7 mph 18.4 mph N/A   Scattered Clouds
5:13 PM -2.2 °F -20.7 °F -14.8 °F 55% 30.14 in 10.0 mi NW 12.7 mph 19.6 mph N/A   Clear
5:33 PM -4.0 °F -17.8 °F -14.8 °F 60% 30.15 in 10.0 mi WNW 6.9 mph - N/A   Clear
5:52 PM -5.8 °F -18.4 °F -14.8 °F 65% 30.16 in 10.0 mi WNW 5.8 mph - N/A   Clear
6:13 PM -5.8 °F -19.9 °F -14.8 °F 65% 30.16 in 10.0 mi WNW 6.9 mph - N/A   Clear
6:33 PM -7.6 °F -23.4 °F -16.6 °F 65% 30.17 in 10.0 mi WNW 8.1 mph - N/A   Clear
6:52 PM -7.6 °F -23.4 °F -16.6 °F 65% 30.18 in 10.0 mi WNW 8.1 mph - N/A   Clear
7:13 PM -7.6 °F -20.6 °F -16.6 °F 65% 30.19 in 10.0 mi WNW 5.8 mph - N/A   Clear
7:33 PM -9.4 °F -22.7 °F -16.6 °F 71% 30.19 in 10.0 mi WNW 5.8 mph - N/A   Clear
7:52 PM -9.4 °F -20.9 °F -16.6 °F 71% 30.19 in 10.0 mi WNW 4.6 mph - N/A   Clear
8:13 PM -9.4 °F -18.6 °F -18.4 °F 65% 30.20 in 10.0 mi WNW 3.5 mph - N/A   Clear
8:33 PM -11.2 °F - -18.4 °F 70% 30.20 in 10.0 mi Calm Calm - N/A   Clear
8:52 PM -11.2 °F -20.6 °F -18.4 °F 70% 30.21 in 10.0 mi WNW 3.5 mph - N/A   Clear
9:13 PM -11.2 °F - -18.4 °F 70% 30.21 in 10.0 mi Calm Calm - N/A   Clear
9:33 PM -11.2 °F - -18.4 °F 70% 30.21 in 10.0 mi Calm Calm - N/A   Clear
9:52 PM -11.2 °F - -18.4 °F 70% 30.21 in 10.0 mi Calm Calm - N/A   Clear
10:13 PM -14.8 °F - -20.2 °F 77% 30.21 in 10.0 mi Calm Calm - N/A   Clear
10:33 PM -14.8 °F -24.8 °F -20.2 °F 77% 30.21 in 10.0 mi WSW 3.5 mph - N/A   Clear
10:52 PM -16.6 °F -29.3 °F -22.0 °F 76% 30.22 in 10.0 mi West 4.6 mph - N/A   Clear
11:13 PM -16.6 °F -29.3 °F -20.2 °F 84% 30.22 in 10.0 mi WSW 4.6 mph - N/A   Clear
11:32 PM -16.6 °F -31.3 °F -22.0 °F 76% 30.22 in 10.0 mi West 5.8 mph - N/A   Clear
11:53 PM -16.6 °F -31.3 °F -22.0 °F 76% 30.22 in 10.0 mi West 5.8 mph - N/A   Clear